Weather History for Ogden, UT

Change the Weather History Date:

Friday, January 18, 2013

  Actual Average Record
Temperature  
Mean Temperature 10 °F -  
Max Temperature 16 °F 38 °F 52 °F (1959)
Min Temperature 5 °F 20 °F -14 °F (1984)
Degree Days  
Heating Degree Days 54    
Moisture  
Dew Point 7 °F    
Average Humidity 83    
Maximum Humidity 92    
Minimum Humidity 71    
Precipitation  
Precipitation 0.00 in - - ()
Sea Level Pressure  
Sea Level Pressure 30.62 in    
Wind  
Wind Speed 4 mph (SSW)    
Max Wind Speed 7 mph    
Max Gust Speed -    
Visibility 4 miles    
Events      
Averages and records for this station are not official NWS values.
T = Trace of Precipitation, MM = Missing Value Source: NWS Daily Summary

Daily Weather History Graph

Daily Weather History Graph

Search for Another Location

Airport:

Trip Planner

Search our weather history database for the weather conditions in past years. The results will help you decide how hot, cold, wet, or windy it might be!

Date:

Astronomy

Jan. 18, 2013 Rise Set
Actual Time 7:49 AM MST 5:27 PM MST
Civil Twilight 7:19 AM MST 5:58 PM MST
Nautical Twilight 6:45 AM MST 6:31 PM MST
Astronomical Twilight 6:12 AM MST 7:04 PM MST
Moon 11:25 AM MST (1/18) 12:26 AM MST (1/18)
Length of Visible Light 10h 38m
Length of Day
9h 38m
Waxing Crescent, 48% of the Moon is Illuminated
Jan 18
Waxing Crescent
Jan 18
First Quarter
Jan 26
Full
Feb 3
Last Quarter
Feb 10
New

Hourly Weather History & Observations

Time (MST) Temp. Windchill Dew Point Humidity Pressure Visibility Wind Dir Wind Speed Gust Speed Precip Events Conditions
12:53 AM 12.0 °F 4.1 °F 8.1 °F 84% 30.69 in 3.0 mi South 4.6 mph - N/A   Overcast
1:07 AM 12.2 °F 4.3 °F 8.6 °F 85% 30.52 in 2.5 mi South 4.6 mph - N/A   Overcast
1:25 AM 12.2 °F 6.1 °F 8.6 °F 85% 30.52 in 2.5 mi South 3.5 mph - N/A   Overcast
1:40 AM 12.2 °F 6.1 °F 8.6 °F 85% 30.52 in 3.0 mi South 3.5 mph - N/A   Overcast
1:51 AM 12.2 °F 6.1 °F 8.6 °F 85% 30.52 in 2.5 mi South 3.5 mph - N/A   Overcast
1:53 AM 12.0 °F 5.9 °F 8.1 °F 84% 30.68 in 2.5 mi South 3.5 mph - N/A   Overcast
2:53 AM 10.9 °F 0.2 °F 8.1 °F 88% 30.68 in 3.0 mi South 6.9 mph - 0.00 in   Overcast
3:06 AM 10.4 °F 0.8 °F 8.6 °F 92% 30.51 in 2.5 mi South 5.8 mph - N/A   Overcast
3:53 AM 10.9 °F 1.4 °F 6.1 °F 81% 30.67 in 4.0 mi South 5.8 mph - 0.00 in   Haze
4:53 AM 10.0 °F 0.4 °F 6.1 °F 84% 30.67 in 5.0 mi South 5.8 mph - N/A   Overcast
5:20 AM 6.8 °F -4.8 °F 3.2 °F 85% 30.49 in 6.0 mi South 6.9 mph - N/A   Scattered Clouds
5:53 AM 6.1 °F -0.9 °F 1.9 °F 83% 30.68 in 6.0 mi South 3.5 mph - N/A   Partly Cloudy
6:26 AM 6.8 °F -3.5 °F 1.4 °F 79% 30.49 in 7.0 mi South 5.8 mph - N/A   Mostly Cloudy
6:53 AM 8.1 °F - 3.9 °F 83% 30.68 in 4.0 mi Calm Calm - N/A   Overcast
7:38 AM 8.6 °F 2.0 °F 3.2 °F 79% 30.50 in 6.0 mi SSE 3.5 mph - N/A   Haze
7:53 AM 6.1 °F -2.8 °F 1.0 °F 80% 30.70 in 5.0 mi SSE 4.6 mph - N/A   Haze
8:53 AM 5.0 °F -5.6 °F 1.0 °F 84% 30.72 in 7.0 mi South 5.8 mph - N/A   Clear
9:53 AM 9.0 °F 2.4 °F 5.0 °F 84% 30.71 in 7.0 mi South 3.5 mph - N/A   Clear
10:53 AM 14.0 °F 8.2 °F 6.1 °F 71% 30.71 in 5.0 mi NNW 3.5 mph - N/A   Haze
11:53 AM 15.1 °F 7.7 °F 10.0 °F 80% 30.69 in 4.0 mi NW 4.6 mph - N/A   Haze
12:53 PM 16.0 °F 10.4 °F 10.0 °F 77% 30.65 in 4.0 mi NW 3.5 mph - N/A   Haze
1:53 PM 16.0 °F 6.3 °F 10.0 °F 77% 30.63 in 3.0 mi NW 6.9 mph - N/A   Haze
2:53 PM 16.0 °F 7.4 °F 10.0 °F 77% 30.62 in 4.0 mi NW 5.8 mph - N/A   Haze
3:53 PM 15.1 °F 9.4 °F 9.0 °F 77% 30.63 in 4.0 mi NNW 3.5 mph - N/A   Haze
4:53 PM 12.9 °F 3.8 °F 8.1 °F 81% 30.64 in 5.0 mi NW 5.8 mph - N/A   Haze
5:53 PM 12.0 °F - 8.1 °F 84% 30.66 in 5.0 mi Calm Calm - N/A   Clear
6:14 PM 12.2 °F 6.1 °F 8.6 °F 85% 30.47 in 4.0 mi NNW 3.5 mph - N/A   Partly Cloudy
6:30 PM 10.4 °F 4.0 °F 8.6 °F 92% 30.47 in 4.0 mi North 3.5 mph - N/A   Mostly Cloudy
6:53 PM 12.9 °F - 10.0 °F 88% 30.65 in 4.0 mi Calm Calm - N/A   Overcast
7:53 PM 12.9 °F - 10.0 °F 88% 30.66 in 3.0 mi Calm Calm - N/A   Overcast
8:53 PM 12.0 °F 5.9 °F 9.0 °F 88% 30.67 in 3.0 mi WSW 3.5 mph - N/A   Overcast
9:53 PM 12.9 °F 6.9 °F 10.0 °F 88% 30.66 in 3.0 mi East 3.5 mph - N/A   Overcast
10:53 PM 12.0 °F - 8.1 °F 84% 30.64 in 4.0 mi Calm Calm - N/A   Overcast
11:53 PM 12.9 °F 5.2 °F 9.0 °F 84% 30.64 in 4.0 mi East 4.6 mph - N/A   Overcast